Location: Estes Par
(40.3770°N, 105.5210°W)
Time: 00:04:48
(UTC-07:00)

Vanguard 3 - Visible Passes

Search period start: 22 February 2018 00:00
Search period end: 04 March 2018 00:00
Orbit: 508 x 3264 km, 33.3° (Epoch: 21 February)

Date Brightness Start Highest point End Pass type
(mag) Time Alt. Az. Time Alt. Az. Time Alt. Az.
22 Feb 8.8 19:25:03 10° SW 19:27:06 14° SSW 19:29:08 11° SSE visible
23 Feb 8.4 18:11:05 10° WSW 18:13:53 20° SSW 18:16:44 10° SE visible
24 Feb 9.0 19:11:01 10° SSW 19:11:32 10° SSW 19:12:03 10° SSW visible
